STARLINK-35356

Last updated on Mon Oct 20 2025 00:02:07 GMT+0000 (Coordinated Universal Time)

1 65836U 25221P 25292.25002315 -.01553376 00000+0 -28536-1 0 9994 2 65836 53.1605 27.8158 0001142 89.2770 254.7868 15.51578644 4439
UTC large
Height (km)
Speed (km/s)
/
Latitude / Longitude
Inclination (degrees)
Orbital Period (minutes)
Azimuth
Elevation
Range (km)
Doppler Factor

Next 0 passes for location: London (51.5072 / 0.1276)

Sorry there are no passes over London.